CZ-11 DEB, 41846

Orbit data source: Space-Track

CZ-11 DEB, 41846 is space debris in SSO originally from a launch on Wed, 09 Nov 2016 UTC launched from the Jiuquan Satellite Launch Center, China (JSC). Debris objects in space refer to the collection of defunct objects orbiting the Earth. Examples of debris include non-operational satellites, rocket bodies, and fragments generated from explosions, collisions, or faulty payload assembly.

Loading next visibility...
Identifier
41846, 2016-066F
Orbit
SSO
Last TLE update
16 hours ago
Origin
Manufacturer
CALT
Mission
Spacecraft
Bus & Motor
Unknown
Mass
Unknown
Launch date (UTC)
2016-11-09 (9 years ago)
Launch vehicle
Unknown
Launch site
Jiuquan Satellite Launch Center, China (JSC)
Object type
Payload
Rocket body
Debris
Shape & HBR
Unknown
Radar Cross Section
0.050 m², Small (<0.1 m²)

Expand to show TLE details & history

TLE from 16 hours ago
0 CZ-11 DEB
1 41846U 16066F   25181.76019718  .00003328  00000-0  43359-3 0  9991
2 41846  98.4431 264.2503 0318686 102.7149 260.9863 14.51595769454001
Epoch: 2025-06-30T18:14Z
TLE epoch observation values (Epoch: 2025-06-30T18:14:41.036Z)
Latitude
-0.0001°
Longitude
71.51395°
Altitude
765.84 km
Speed
7.449 km/s
True Right ascension
17h 37m 00s
True Declination
0° 00' 00"
Sunlit
Object was in full shadow at epoch
Visualization orbit readout
Latitude
-13.05337°
Longitude
-109.7876°
Altitude
727.859 km
Speed
7.49 km/s
Apparent Right ascension
07h 11m 26s
Apparent Declination
-29° 01' 01"
Sunlit
Object is in daylight
Visualization observer readout
Local Sidereal Time
21:37:34
Azimuth
81.39° E
Elevation
-58.229°
Doppler factor
1
Orbital elements
Apogee altitude
943.67 km
Perigee altitude
491.411 km
Semi-major axis
7,095.678 km
Eccentricity
0.03187
Inclination
98.4431°
RAAN
264.2503°
Arg. of periapsis
102.7149°
True anomaly
Unknown
Mean anomaly
260.9863°
Eccentric anomaly
Unknown
Mean motion
3.63122 °/min
Orbital period
99.14 mins
BSTAR
0.00043359
Loading maneuver chart data...
Loading SW <> Apogee altitude chart data...
Loading historical data...
Loading historical data...
Loading historical data...
Loading historical data...
Loading historical data...
Loading historical data...
Loading historical data...

CZ-11 DEB Visibility forecast

Observer location: undefined°, undefined°

Span
Click to sort rows by Start time (UTC) header in descending order
Start Az.
Max El. time (UTC)
Max El. Az.
Max El.
End time (UTC)
End Az.
7 mins2025-07-01 17:58:12.241Z31.902° NE2025-07-01 18:01:12.241Z90.41° ESE31.662°2025-07-01 18:05:12.241Z169.927° S
6 mins2025-07-02 05:07:12.241Z143.214° SSE2025-07-02 05:10:12.241Z82.768° E36.579°2025-07-02 05:13:12.241Z4.185° NNE
|